Skip Page Navigation
NASA JPL Caltech
NASA Logo - Jet Propulsion Laboratory + View the NASA Portal
+ Center for Near-Earth Object Studies
JPL Home Earth Solar System Stars & Galaxies Technology
JPL Solar System Dynamics
BODIES ORBITS EPHEMERIDES TOOLS PHYSICAL DATA DISCOVERY FAQ SITE MAP
IMPORTANT: The SSD Announcement email list is now available. Major changes are coming in the near future, including possible hostname and/or URL changes. To be notified of such changes, subscribe to this email list.

Please visit this page for more details.


JPL Small-Body Database Browser
Search: [ help ]  
461418 (2001 TY214)
Classification: Main-belt Asteroid          SPK-ID: 2461418
Ephemeris | Orbit Diagram | Orbital Elements | Mission Design | Physical Parameters | Discovery Circumstances ]

[ show orbit diagram ]
Orbital Elements at Epoch 2458600.5 (2019-Apr-27.0) TDB
Reference: JPL 17 (heliocentric ecliptic J2000)
 Element Value Uncertainty (1-sigma)   Units 
e .1718870396855808 1.176e-07  
a 2.652203883738618 3.4074e-08 au
q 2.196324409520186 3.2754e-07 au
i 14.90189967860221 1.3927e-05 deg
node 358.8021834727956 2.8774e-05 deg
peri 43.91081831619467 5.4505e-05 deg
M 12.70599560223393 4.0316e-05 deg
tp 2458544.817979380634
(2019-Mar-02.31797938)
0.00017609 TDB
period 1577.643189129338
4.32
3.0403e-05
8.324e-08
d
yr
n .2281884791697893 4.3974e-09 deg/d
Q 3.108083357957049 3.9931e-08 au
  Orbit Determination Parameters
   # obs. used (total)      125  
   data-arc span      6231 days (17.06 yr)  
   first obs. used      2001-10-13  
   last obs. used      2018-11-04  
   planetary ephem.      DE431  
   SB-pert. ephem.      SB431-N16  
   condition code      0  
   norm. resid. RMS      .52556  
   source      ORB  
   producer      Otto Matic  
   solution date      2019-Jul-14 15:52:44  

Additional Information
 Earth MOID = 1.22511 au 
 Jupiter MOID = 2.4401 au 
 T_jup = 3.321 
[ show covariance matrix ]

Ephemeris | Orbit Diagram | Orbital Elements | Mission Design | Physical Parameters | Discovery Circumstances ]

Physical Parameter Table
Parameter Symbol Value Units Sigma Reference Notes
absolute magnitude H 16.6   n/a MPO456234  

461418 (2001 TY214)          Discovered 2001-Oct-13 by NEAT at Palomar
Reference: Last Updated: 2016-03-24

Alternate Designations
 2001 TY214 = 2014 UX121 
Ephemeris | Orbit Diagram | Orbital Elements | Mission Design | Physical Parameters | Discovery Circumstances ]
ABOUT SSD CREDITS/AWARDS PRIVACY/COPYRIGHT GLOSSARY LINKS
FirstGov 2019-Oct-15 08:01 UT
(server date/time)  
NASA Home Page
Site Manager:   Ryan S. Park
Webmaster  Alan B. Chamberlin